Location: Minneapolis
(44.9800°N, 93.2640°W)
Time: 13:08:47
(UTC-05:00)

Iridium 96 - Visible Passes

Search period start: 26 September 2017 00:00
Search period end: 06 October 2017 00:00
Orbit: 776 x 779 km, 86.4° (Epoch: 26 September)

Date Brightness Start Highest point End Pass type
(mag) Time Alt. Az. Time Alt. Az. Time Alt. Az.
26 Sep 9.0 05:20:55 10° NE 05:22:56 12° ENE 05:24:55 10° E visible
26 Sep 6.8 19:58:14 10° SSW 20:03:13 46° W 20:08:15 10° N visible
27 Sep 6.6 06:25:46 10° N 06:30:51 51° E 06:35:55 10° SSE visible
27 Sep 5.7 19:24:23 10° S 19:29:37 82° W 19:34:52 10° N visible
27 Sep 9.0 21:10:01 10° W 21:11:13 11° WNW 21:12:25 10° NW visible
28 Sep 7.7 05:52:36 10° NNE 05:57:09 29° ENE 06:01:39 10° SE visible
28 Sep 8.4 20:33:35 10° WSW 20:37:15 19° WNW 20:40:57 10° NNW visible
29 Sep 8.6 05:19:55 10° NNE 05:23:18 17° ENE 05:26:39 10° ESE visible
29 Sep 7.5 19:58:46 10° SW 20:03:26 33° WNW 20:08:08 10° NNW visible
30 Sep 5.9 06:25:46 10° N 06:31:00 73° E 06:36:12 10° S visible
30 Sep 6.3 19:24:37 10° SSW 19:29:45 58° W 19:34:55 10° N visible
01 Oct 7.0 05:52:26 10° N 05:57:22 41° E 06:02:16 10° SSE visible
01 Oct 8.8 20:35:01 10° W 20:37:36 14° WNW 20:40:11 10° NW visible
02 Oct 8.0 05:19:26 10° NNE 05:23:36 24° ENE 05:27:45 10° SE visible
02 Oct 8.1 19:59:33 10° SW 20:03:42 24° WNW 20:07:52 10° NNW visible
03 Oct 8.7 04:47:06 10° NE 04:49:42 14° ENE 04:52:17 10° E visible
03 Oct 5.5 06:25:52 10° N 06:31:06 80° W 06:36:19 10° S visible
03 Oct 7.1 19:25:03 10° SSW 19:29:56 41° W 19:34:52 10° N visible
04 Oct 6.2 05:52:23 10° N 05:57:33 58° E 06:02:40 10° SSE visible
05 Oct 7.3 05:19:10 10° NNE 05:23:52 33° ENE 05:28:32 10° SE visible
05 Oct 8.6 20:00:39 10° WSW 20:04:00 17° WNW 20:07:23 10° NNW visible
